DELTA 1 DEB, 10707

Orbit data source: Space-Track

DELTA 1 DEB, 10707 is space debris in LEO originally from a launch on Thu, 29 Jul 1976 UTC launched from the Air Force Western Test Range (AFWTR). Debris objects in space refer to the collection of defunct objects orbiting the Earth. Examples of debris include non-operational satellites, rocket bodies, and fragments generated from explosions, collisions, or faulty payload assembly.

Loading next visibility...
Identifier
10707, 1976-077AC
Orbit
LEO
Country
Flag of USUS
Related business
Manufacturer
Unknown
Mission
Spacecraft
Bus & Motor
Unknown
Mass
Unknown
Launch date (UTC)
1976-07-29 (49 years ago)
Launch vehicle
Unknown
Launch site
Air Force Western Test Range (AFWTR)
Object type
Payload
Rocket body
Debris
Shape & HBR
Unknown
Radar Cross Section
Small (<0.1 m²)

Expand to show TLE details & history
Last TLE update: 1 day ago

TLE from 1 day ago
0 DELTA 1 DEB
1 10707U 76077AC  25242.06595454  .00000317  00000-0  40579-2 0  9993
2 10707 102.2120 268.7774 0269343  79.9088 340.6455 11.98280401117486
Epoch: 2025-08-30T01:34Z
TLE epoch observation values (Epoch: 2025-08-30T01:34:58.472Z)
Latitude
57.458°
Longitude
-113.19672°
Altitude
1,493.633 km
Speed
7.212 km/s
True Right ascension
16h 36m 12s
True Declination
57° 18' 59"
Sunlit
Object was in daylight at epoch
Visualization orbit readout
Latitude
Unknown
Longitude
Unknown
Altitude
Unknown
Speed
Unknown
Apparent Right ascension
Unknown
Apparent Declination
Unknown
Sunlit
N/A
Visualization observer readout
Local Sidereal Time
16:46:01
Azimuth
Unknown
Elevation
Unknown
Doppler factor
Unknown
Orbital elements
Apogee altitude
1,903.416 km
Perigee altitude
1,469.001 km
Semi-major axis
8,064.345 km
Eccentricity
0.02693
Inclination
102.212°
RAAN
268.7774°
Arg. of periapsis
79.9088°
True anomaly
339.58916°
Mean anomaly
340.6455°
Eccentric anomaly
340.12074°
Mean motion
2.99702 °/min
Orbital period
120.12 mins
BSTAR
0.0040579
Loading maneuver chart data...
Computing Atmospheric mass density...
Loading historical data...
Loading historical data...
Loading historical data...
Loading historical data...
Loading historical data...
Loading historical data...
Loading historical data...

Documentation

Showing up to 5 results
|